Location: �clusier
(49.9361°N, 2.7869°E)
Time: 08:03:53
(UTC+00:00)

Cosmos 1867 - Pass Details

Date: 16 June 2021
Orbit: 773 x 803 km, 65.0° (Epoch: 02 August)

Event Time Altitude Azimuth Distance (km) Brightness Sun altitude
Rises 21:39:06 0° 320° (NW) 3,321 8.8 -11.2°
Reaches altitude 10° 21:41:37 10° 326° (NNW) 2,389 7.6 -11.4°
Maximum altitude 21:46:57 48° 41° (NE) 1,042 4.3 -11.8°
Drops below altitude 10° 21:52:15 10° 116° (ESE) 2,376 5.6 -12.2°
Enters shadow 21:52:16 10° 116° (ESE) 2,381 5.6 -12.2°
